TimeCDT,TemperatureF,Dew PointF,Humidity,Sea Level PressureIn,VisibilityMPH,Wind Direction,Wind SpeedMPH,Gust SpeedMPH,PrecipitationIn,Events,Conditions,WindDirDegrees,DateUTC
12:15 AM,53.6,46.4,77,29.71,10.0,West,16.1,-,N/A,,Clear,280,2012-10-14 05:15:00
12:35 AM,53.6,46.4,77,29.71,10.0,West,15.0,-,N/A,,Clear,280,2012-10-14 05:35:00
12:55 AM,53.6,46.4,77,29.71,10.0,West,15.0,-,N/A,,Clear,280,2012-10-14 05:55:00
1:15 AM,53.6,46.4,77,29.72,10.0,WNW,16.1,23.0,N/A,,Clear,290,2012-10-14 06:15:00
1:35 AM,53.6,46.4,77,29.74,10.0,WNW,13.8,-,N/A,,Clear,300,2012-10-14 06:35:00
1:55 AM,53.6,46.4,77,29.73,10.0,WNW,9.2,-,N/A,,Clear,290,2012-10-14 06:55:00
2:15 AM,53.6,46.4,77,29.78,10.0,NW,17.3,24.2,N/A,,Clear,320,2012-10-14 07:15:00
2:35 AM,55.4,46.4,72,29.77,10.0,NW,16.1,-,N/A,,Scattered Clouds,310,2012-10-14 07:35:00
2:55 AM,55.4,46.4,72,29.79,10.0,NNW,13.8,-,N/A,,Clear,330,2012-10-14 07:55:00
3:15 AM,55.4,46.4,72,29.81,10.0,NW,12.7,-,N/A,,Clear,320,2012-10-14 08:15:00
3:35 AM,53.6,46.4,77,29.83,10.0,NW,11.5,-,N/A,,Clear,310,2012-10-14 08:35:00
3:55 AM,51.8,46.4,82,29.85,10.0,West,11.5,-,N/A,,Clear,280,2012-10-14 08:55:00
4:15 AM,53.6,46.4,77,29.85,10.0,NW,13.8,-,N/A,,Clear,320,2012-10-14 09:15:00
4:35 AM,53.6,46.4,77,29.85,10.0,NW,15.0,-,N/A,,Clear,320,2012-10-14 09:35:00
4:55 AM,53.6,44.6,72,29.86,10.0,NW,18.4,24.2,N/A,,Clear,320,2012-10-14 09:55:00
5:15 AM,55.4,42.8,63,29.88,10.0,NW,18.4,25.3,N/A,,Clear,320,2012-10-14 10:15:00
5:35 AM,53.6,42.8,67,29.90,10.0,NW,16.1,-,N/A,,Clear,310,2012-10-14 10:35:00
5:55 AM,53.6,42.8,67,29.91,10.0,NW,17.3,-,N/A,,Clear,310,2012-10-14 10:55:00
6:15 AM,53.6,42.8,67,29.93,10.0,NW,15.0,-,N/A,,Clear,310,2012-10-14 11:15:00
6:35 AM,51.8,41.0,67,29.94,10.0,NW,13.8,-,N/A,,Clear,310,2012-10-14 11:35:00
6:55 AM,51.8,41.0,67,29.95,10.0,NW,13.8,-,N/A,,Clear,320,2012-10-14 11:55:00
7:15 AM,51.8,41.0,67,29.97,10.0,NW,15.0,-,N/A,,Clear,320,2012-10-14 12:15:00
7:35 AM,51.8,41.0,67,29.98,10.0,NW,12.7,-,N/A,,Clear,320,2012-10-14 12:35:00
7:55 AM,51.8,41.0,67,30.00,10.0,NW,12.7,-,N/A,,Clear,320,2012-10-14 12:55:00
8:15 AM,51.8,41.0,67,30.00,10.0,NW,10.4,-,N/A,,Clear,320,2012-10-14 13:15:00
8:35 AM,53.6,41.0,62,30.02,10.0,NW,10.4,-,N/A,,Clear,320,2012-10-14 13:35:00
8:55 AM,55.4,41.0,58,30.05,10.0,NW,10.4,-,N/A,,Clear,320,2012-10-14 13:55:00
9:15 AM,57.2,41.0,55,30.07,10.0,NW,13.8,-,N/A,,Clear,320,2012-10-14 14:15:00
9:35 AM,59.0,41.0,51,30.08,10.0,NW,16.1,23.0,N/A,,Clear,320,2012-10-14 14:35:00
9:55 AM,60.8,39.2,45,30.09,10.0,NNW,17.3,23.0,N/A,,Clear,330,2012-10-14 14:55:00
10:15 AM,62.6,37.4,39,30.10,10.0,NNW,13.8,-,N/A,,Clear,330,2012-10-14 15:15:00
10:35 AM,64.4,35.6,34,30.10,10.0,NNW,18.4,24.2,N/A,,Clear,340,2012-10-14 15:35:00
10:55 AM,66.2,35.6,32,30.11,10.0,NNW,19.6,26.5,N/A,,Clear,340,2012-10-14 15:55:00
11:15 AM,68.0,37.4,33,30.11,10.0,North,18.4,29.9,N/A,,Clear,350,2012-10-14 16:15:00
11:35 AM,68.0,37.4,33,30.11,10.0,NNW,17.3,25.3,N/A,,Clear,340,2012-10-14 16:35:00
11:55 AM,69.8,37.4,31,30.12,10.0,NNW,19.6,24.2,N/A,,Clear,330,2012-10-14 16:55:00
12:15 PM,69.8,37.4,31,30.12,10.0,NNW,18.4,25.3,N/A,,Clear,330,2012-10-14 17:15:00
12:35 PM,71.6,37.4,29,30.12,10.0,NNW,18.4,23.0,N/A,,Clear,330,2012-10-14 17:35:00
12:55 PM,71.6,37.4,29,30.12,10.0,North,17.3,24.2,N/A,,Clear,350,2012-10-14 17:55:00
1:15 PM,71.6,37.4,29,30.13,10.0,NW,17.3,23.0,N/A,,Clear,310,2012-10-14 18:15:00
1:35 PM,73.4,37.4,27,30.12,10.0,NW,15.0,-,N/A,,Clear,320,2012-10-14 18:35:00
1:55 PM,73.4,37.4,27,30.11,10.0,NW,13.8,20.7,N/A,,Clear,320,2012-10-14 18:55:00
2:15 PM,73.4,37.4,27,30.10,10.0,NW,13.8,24.2,N/A,,Clear,320,2012-10-14 19:15:00
2:55 PM,73.4,37.4,27,30.09,10.0,NNW,17.3,25.3,N/A,,Clear,330,2012-10-14 19:55:00
3:15 PM,73.4,37.4,27,30.09,10.0,NW,17.3,21.9,N/A,,Clear,320,2012-10-14 20:15:00
3:35 PM,73.4,37.4,27,30.10,10.0,NNW,18.4,23.0,N/A,,Clear,330,2012-10-14 20:35:00
3:55 PM,73.4,37.4,27,30.10,10.0,NW,15.0,21.9,N/A,,Clear,320,2012-10-14 20:55:00
4:15 PM,73.4,37.4,27,30.09,10.0,NNW,15.0,21.9,N/A,,Clear,330,2012-10-14 21:15:00
4:35 PM,73.4,37.4,27,30.09,10.0,NNW,18.4,23.0,N/A,,Clear,340,2012-10-14 21:35:00
4:55 PM,73.4,37.4,27,30.09,10.0,NNW,15.0,23.0,N/A,,Clear,330,2012-10-14 21:55:00
5:15 PM,73.4,37.4,27,30.09,10.0,NW,17.3,24.2,N/A,,Clear,310,2012-10-14 22:15:00
5:35 PM,71.6,37.4,29,30.09,10.0,WNW,10.4,-,N/A,,Clear,300,2012-10-14 22:35:00
5:55 PM,71.6,37.4,29,30.09,10.0,NW,9.2,-,N/A,,Clear,310,2012-10-14 22:55:00
6:15 PM,71.6,39.2,31,30.09,10.0,NW,8.1,-,N/A,,Clear,310,2012-10-14 23:15:00
6:35 PM,68.0,41.0,37,30.09,10.0,WNW,5.8,-,N/A,,Clear,300,2012-10-14 23:35:00
6:55 PM,64.4,42.8,45,30.09,10.0,West,4.6,-,N/A,,Clear,270,2012-10-14 23:55:00
7:15 PM,62.6,42.8,48,30.09,10.0,WSW,6.9,-,N/A,,Clear,250,2012-10-15 00:15:00
7:35 PM,59.0,42.8,55,30.09,10.0,WSW,6.9,-,N/A,,Clear,240,2012-10-15 00:35:00
7:55 PM,55.4,42.8,63,30.09,10.0,WSW,8.1,-,N/A,,Clear,240,2012-10-15 00:55:00
8:15 PM,55.4,42.8,63,30.09,10.0,WSW,8.1,-,N/A,,Clear,240,2012-10-15 01:15:00
8:35 PM,53.6,42.8,67,30.09,10.0,WSW,8.1,-,N/A,,Clear,240,2012-10-15 01:35:00
8:55 PM,51.8,42.8,71,30.10,10.0,WSW,6.9,-,N/A,,Clear,250,2012-10-15 01:55:00
9:15 PM,51.8,42.8,71,30.10,10.0,West,8.1,-,N/A,,Clear,260,2012-10-15 02:15:00
9:35 PM,50.0,42.8,76,30.10,10.0,WSW,6.9,-,N/A,,Clear,250,2012-10-15 02:35:00
9:55 PM,51.8,42.8,71,30.10,10.0,WSW,6.9,-,N/A,,Clear,250,2012-10-15 02:55:00
10:15 PM,50.0,42.8,76,30.10,10.0,West,8.1,-,N/A,,Clear,260,2012-10-15 03:15:00
10:35 PM,50.0,42.8,76,30.10,10.0,WSW,4.6,-,N/A,,Clear,240,2012-10-15 03:35:00
10:55 PM,50.0,41.0,71,30.11,10.0,WSW,5.8,-,N/A,,Clear,240,2012-10-15 03:55:00
11:15 PM,50.0,41.0,71,30.11,10.0,WSW,5.8,-,N/A,,Clear,250,2012-10-15 04:15:00
11:35 PM,48.2,41.0,76,30.11,10.0,WSW,6.9,-,N/A,,Clear,250,2012-10-15 04:35:00
11:55 PM,48.2,41.0,76,30.10,10.0,West,8.1,-,N/A,,Clear,260,2012-10-15 04:55:00